EW8669 Weather Reports


Display with metric or nautical units.
time (UTC)temp
F
wind
direction
speed
MPH
gust
MPH
rain 1hr
in
rain 24hr
in
rain mn
in
humidity
%
barometer
mb
20260505082520 64 62 2.0 5.0 0.00 0.00 0.00 91 1014.1
20260505082022 64 67 3.0 5.0 0.00 0.00 0.00 90 1014.0
20260505081545 64 75 2.0 6.0 0.00 0.00 0.00 90 1014.1
20260505081023 64 71 3.0 6.0 0.00 0.00 0.00 91 1014.2
20260505080522 64 65 3.0 5.0 0.00 0.00 0.00 91 1014.1
20260505080044 64 69 2.0 6.0 0.00 0.00 0.00 91 1014.2
20260505075520 64 89 3.0 6.0 0.00 0.00 0.00 91 1014.0
20260505075023 64 67 3.0 6.0 0.00 0.00 0.00 91 1014.2
20260505074540 63 59 2.0 6.0 0.00 0.00 0.00 91 1014.3
20260505074020 63 52 1.0 5.0 0.00 0.00 0.00 90 1014.5
20260505073522 64 32 2.0 5.0 0.00 0.00 0.00 91 1014.5
20260505073047 63 53 1.0 5.0 0.00 0.00 0.00 91 1014.4
20260505072521 63 70 2.0 5.0 0.00 0.00 0.00 91 1014.3
20260505072020 63 67 2.0 4.0 0.00 0.00 0.00 90 1014.4
20260505071549 63 68 1.0 3.0 0.00 0.00 0.00 90 1014.5
20260505071022 63 0 0.0 2.0 0.00 0.00 0.00 90 1014.5
20260505070522 63 58 1.0 2.0 0.00 0.00 0.00 89 1014.6
20260505070036 63 0 0.0 1.0 0.00 0.00 0.00 89 1014.7
20260505065522 63 0 0.0 1.0 0.00 0.00 0.00 89 1014.8
20260505065021 64 0 0.0 2.0 0.00 0.00 0.00 89 1014.8
20260505064542 64 0 0.0 3.0 0.00 0.00 0.00 89 1014.8
20260505064026 64 0 0.0 3.0 0.00 0.00 0.00 89 1014.7
20260505063520 64 65 0.0 2.0 0.00 0.00 0.00 89 1014.8
20260505063040 64 66 0.0 2.0 0.00 0.00 0.00 89 1014.7
20260505062520 64 0 0.0 3.0 0.00 0.00 0.00 89 1014.8
20260505062020 64 0 0.0 3.0 0.00 0.00 0.00 89 1014.8
20260505061536 64 67 1.0 3.0 0.00 0.00 0.00 89 1014.7
20260505061022 64 0 1.0 4.0 0.00 0.00 0.00 88 1014.9
20260505060528 64 67 2.0 4.0 0.00 0.00 0.00 88 1015.0
20260505060523 64 67 1.0 3.0 0.00 0.00 0.00 88 1015.1
20260505055523 64 65 1.0 3.0 0.00 0.00 0.00 88 1015.2
20260505055022 64 66 0.0 3.0 0.00 0.00 0.00 88 1015.1
20260505054553 64 0 1.0 3.0 0.00 0.00 0.00 88 1015.2
20260505054020 64 69 0.0 0.0 0.00 0.00 0.00 87 1015.3
20260505053520 64 0 0.0 0.0 0.00 0.00 0.00 87 1015.3
20260505053054 65 0 0.0 0.0 0.00 0.00 0.00 87 1015.5
20260505052522 65 0 0.0 0.0 0.00 0.00 0.00 87 1015.7
20260505052020 65 0 0.0 1.0 0.00 0.00 0.00 86 1015.7
20260505051543 65 0 0.0 3.0 0.00 0.00 0.00 86 1015.8
20260505051023 65 0 0.0 3.0 0.00 0.00 0.00 86 1015.9
20260505050521 65 0 0.0 3.0 0.00 0.00 0.00 86 1015.8
20260505041542 65 88 3.0 7.0 0.00 0.00 0.00 85 1015.7
20260505041020 65 70 3.0 7.0 0.00 0.00 0.00 85 1015.8
20260505040520 65 44 3.0 7.0 0.00 0.00 0.00 85 1015.8
20260505040045 65 71 2.0 6.0 0.00 0.00 0.00 85 1016.0
20260505035520 65 76 2.0 6.0 0.00 0.00 0.00 85 1016.0
20260505035020 65 67 3.0 6.0 0.00 0.00 0.00 85 1016.0
20260505034539 65 62 2.0 5.0 0.00 0.00 0.00 85 1016.1
20260505034021 65 71 2.0 5.0 0.00 0.00 0.00 85 1016.2
20260505033520 66 71 2.0 5.0 0.00 0.00 0.00 84 1016.3
20260505033041 66 77 1.0 4.0 0.00 0.00 0.00 84 1016.3
20260505032520 66 64 1.0 4.0 0.00 0.00 0.00 84 1016.4
20260505032021 66 53 1.0 6.0 0.00 0.00 0.00 84 1016.4
20260505031544 66 0 1.0 6.0 0.00 0.00 0.00 83 1016.4
20260505031023 66 57 2.0 5.0 0.00 0.00 0.00 83 1016.3
20260505030520 66 62 2.0 6.0 0.00 0.00 0.00 83 1016.3
20260505030042 66 72 3.0 6.0 0.00 0.00 0.00 83 1016.2
20260505025521 66 71 2.0 5.0 0.00 0.00 0.00 82 1016.2
20260505025020 67 0 1.0 6.0 0.00 0.00 0.00 82 1016.5
20260505024539 67 73 3.0 7.0 0.00 0.00 0.00 82 1016.4
20260505024022 67 78 2.0 7.0 0.00 0.00 0.00 81 1016.3
20260505023520 67 55 3.0 5.0 0.00 0.00 0.00 81 1016.3
20260505023039 67 76 2.0 5.0 0.00 0.00 0.00 81 1016.3
20260505022520 67 50 2.0 7.0 0.00 0.00 0.00 81 1016.3
20260505022020 68 80 3.0 7.0 0.00 0.00 0.00 81 1016.3
20260505021536 68 68 3.0 7.0 0.00 0.00 0.00 80 1016.2
20260505021022 68 74 2.0 8.0 0.00 0.00 0.00 80 1016.2
20260505020520 68 80 3.0 8.0 0.00 0.00 0.00 80 1016.1
20260505020044 68 84 4.0 8.0 0.00 0.00 0.00 80 1016.0
20260505015521 68 75 4.0 8.0 0.00 0.00 0.00 80 1016.1
20260505015021 68 76 4.0 8.0 0.00 0.00 0.00 79 1016.1
20260505014544 69 82 4.0 7.0 0.00 0.00 0.00 79 1015.9
20260505014023 69 88 4.0 8.0 0.00 0.00 0.00 79 1015.9
20260505013523 69 88 4.0 8.0 0.00 0.00 0.00 79 1015.9
20260505013040 69 83 4.0 8.0 0.00 0.00 0.00 78 1015.8
20260505012526 69 79 3.0 8.0 0.00 0.00 0.00 79 1015.8
20260505012024 69 84 4.0 8.0 0.00 0.00 0.00 78 1015.7
20260505011550 69 76 3.0 8.0 0.00 0.00 0.00 77 1015.7
20260505011023 70 78 4.0 8.0 0.00 0.00 0.00 77 1015.7
20260505010523 70 72 3.0 7.0 0.00 0.00 0.00 77 1015.7
20260505010045 70 74 2.0 7.0 0.00 0.00 0.00 77 1015.8
20260505005525 70 81 3.0 8.0 0.00 0.00 0.00 76 1015.8
20260505005023 70 76 4.0 8.0 0.00 0.00 0.00 76 1015.7
20260505004544 70 93 4.0 9.0 0.00 0.00 0.00 76 1015.5
20260505004022 71 76 4.0 9.0 0.00 0.00 0.00 76 1015.5
20260505003523 71 92 4.0 8.0 0.00 0.00 0.00 75 1015.4
20260505003042 71 76 5.0 10.0 0.00 0.00 0.00 75 1015.5
20260505002524 71 76 6.0 10.0 0.00 0.00 0.00 75 1015.5
20260505002024 71 78 6.0 10.0 0.00 0.00 0.00 74 1015.3
20260505001541 72 90 6.0 10.0 0.00 0.00 0.00 74 1015.3
20260505001023 72 82 4.0 7.0 0.00 0.00 0.00 74 1015.4
20260505000523 72 83 3.0 12.0 0.00 0.00 0.00 73 1015.4
20260505000040 72 80 4.0 12.0 0.00 0.00 0.00 73 1015.3
20260504235523 73 90 7.0 12.0 0.00 0.00 0.00 72 1015.1
20260504235024 73 103 8.0 12.0 0.00 0.00 0.00 73 1015.1
20260504234542 73 110 8.0 12.0 0.00 0.00 0.00 72 1015.0
20260504234023 73 90 8.0 13.0 0.00 0.00 0.00 71 1014.9
20260504233523 73 99 9.0 15.0 0.00 0.00 0.00 71 1015.0
20260504233042 73 94 9.0 15.0 0.00 0.00 0.00 70 1014.9
20260504232523 73 84 6.0 11.0 0.00 0.00 0.00 70 1014.9
20260504232024 74 85 7.0 12.0 0.00 0.00 0.00 70 1014.8
20260504231543 74 81 7.0 13.0 0.00 0.00 0.00 70 1014.9
20260504231024 74 84 8.0 18.0 0.00 0.00 0.00 70 1014.9
20260504230524 74 86 11.0 19.0 0.00 0.00 0.00 69 1014.9
20260504230043 74 94 12.0 19.0 0.00 0.00 0.00 68 1014.9
20260504225526 74 103 13.0 19.0 0.00 0.00 0.00 68 1014.7
20260504225023 74 107 13.0 18.0 0.00 0.00 0.00 68 1014.9
20260504224541 74 82 11.0 18.0 0.00 0.00 0.00 68 1014.9
20260504224024 74 94 10.0 18.0 0.00 0.00 0.00 69 1014.8
20260504223524 74 78 11.0 18.0 0.00 0.00 0.00 68 1014.9
20260504223040 75 94 11.0 18.0 0.00 0.00 0.00 69 1014.9
20260504222524 75 88 10.0 18.0 0.00 0.00 0.00 69 1014.9
20260504222020 75 93 11.0 18.0 0.00 0.00 0.00 68 1014.9
20260504221538 75 86 10.0 19.0 0.00 0.00 0.00 70 1014.7
20260504221023 75 75 12.0 19.0 0.00 0.00 0.00 69 1014.7
20260504220523 75 88 12.0 19.0 0.00 0.00 0.00 68 1014.7
20260504220036 75 96 11.0 19.0 0.00 0.00 0.00 67 1014.9
20260504215522 75 80 13.0 19.0 0.00 0.00 0.00 68 1014.8
20260504215023 75 92 13.0 19.0 0.00 0.00 0.00 69 1014.7
20260504214550 75 100 10.0 18.0 0.00 0.00 0.00 69 1014.7
20260504214023 75 82 12.0 19.0 0.00 0.00 0.00 69 1014.8
20260504213523 75 95 13.0 19.0 0.00 0.00 0.00 68 1014.9
20260504213048 75 109 13.0 19.0 0.00 0.00 0.00 67 1014.8
20260504212524 75 80 14.0 19.0 0.00 0.00 0.00 68 1014.9
20260504212024 75 65 12.0 20.0 0.00 0.00 0.00 68 1014.9
20260504211540 75 94 15.0 22.0 0.00 0.00 0.00 68 1014.9
20260504211023 75 78 14.0 22.0 0.00 0.00 0.00 67 1014.8
20260504210524 75 105 14.0 21.0 0.00 0.00 0.00 67 1014.9
20260504210037 75 113 11.0 17.0 0.00 0.00 0.00 69 1014.9
20260504205523 75 99 12.0 23.0 0.00 0.00 0.00 69 1014.9
20260504205022 75 94 12.0 23.0 0.00 0.00 0.00 69 1015.1
20260504204543 75 88 16.0 22.0 0.00 0.00 0.00 68 1015.0
20260504204023 75 83 10.0 18.0 0.00 0.00 0.00 67 1014.9
20260504203523 75 87 11.0 21.0 0.00 0.00 0.00 68 1014.9
20260504203044 75 110 16.0 21.0 0.00 0.00 0.00 66 1015.0
20260504202524 75 115 11.0 19.0 0.00 0.00 0.00 67 1015.0
20260504202023 75 78 14.0 22.0 0.00 0.00 0.00 67 1015.1
20260504201542 75 92 12.0 22.0 0.00 0.00 0.00 67 1015.1
20260504201023 75 76 11.0 22.0 0.00 0.00 0.00 67 1015.2
20260504200523 75 101 13.0 20.0 0.00 0.00 0.00 67 1015.4
20260504200049 75 122 12.0 19.0 0.00 0.00 0.00 68 1015.5
20260504195523 75 106 13.0 21.0 0.00 0.00 0.00 69 1015.6
20260504195023 75 105 12.0 21.0 0.00 0.00 0.00 67 1015.6
20260504194541 75 112 14.0 24.0 0.00 0.00 0.00 67 1015.3
20260504194025 75 86 12.0 24.0 0.00 0.00 0.00 67 1015.5
20260504193523 76 107 16.0 24.0 0.00 0.00 0.00 66 1015.5
20260504193036 76 92 12.0 18.0 0.00 0.00 0.00 65 1015.6
20260504192519 76 90 10.0 18.0 0.00 0.00 0.00 66 1015.5
20260504192020 76 94 10.0 21.0 0.00 0.00 0.00 65 1015.6
20260504191552 76 82 11.0 21.0 0.00 0.00 0.00 65 1015.7
20260504191020 76 88 11.0 20.0 0.00 0.00 0.00 65 1015.8
20260504190521 76 93 11.0 19.0 0.00 0.00 0.00 67 1016.0
20260504190047 76 98 13.0 19.0 0.00 0.00 0.00 66 1016.0
20260504185520 76 87 11.0 19.0 0.00 0.00 0.00 66 1016.1
20260504185020 76 43 12.0 21.0 0.00 0.00 0.00 66 1016.1
20260504184553 76 101 14.0 21.0 0.00 0.00 0.00 67 1016.2
20260504184020 76 74 10.0 17.0 0.00 0.00 0.00 66 1016.1
20260504183520 76 100 10.0 22.0 0.00 0.00 0.00 65 1016.3
20260504183049 76 76 14.0 22.0 0.00 0.00 0.00 66 1016.3
20260504182520 75 103 10.0 18.0 0.00 0.00 0.00 66 1016.3
20260504182022 76 95 11.0 23.0 0.00 0.00 0.00 66 1016.4
20260504181545 76 82 11.0 23.0 0.00 0.00 0.00 66 1016.4
20260504181020 75 103 13.0 20.0 0.00 0.00 0.00 65 1016.4
20260504180520 75 104 11.0 20.0 0.00 0.00 0.00 66 1016.4
20260504180037 76 98 12.0 20.0 0.00 0.00 0.00 66 1016.4
20260504175520 75 82 12.0 19.0 0.00 0.00 0.00 66 1016.4
20260504175022 76 86 13.0 19.0 0.00 0.00 0.00 67 1016.5
20260504174542 76 94 12.0 15.0 0.00 0.00 0.00 66 1016.6
20260504174021 76 93 11.0 18.0 0.00 0.00 0.00 65 1016.5
20260504173521 75 112 11.0 19.0 0.00 0.00 0.00 67 1016.5
20260504173041 75 110 14.0 23.0 0.00 0.00 0.00 64 1016.6
20260504172524 76 80 11.0 23.0 0.00 0.00 0.00 65 1016.5
20260504172020 76 94 15.0 23.0 0.00 0.00 0.00 64 1016.6
20260504171541 76 71 13.0 18.0 0.00 0.00 0.00 63 1016.7
20260504171023 76 87 10.0 15.0 0.00 0.00 0.00 64 1016.6
20260504170520 76 81 6.0 15.0 0.00 0.00 0.00 63 1016.7
20260504151020 76 0 0.0 0.0 0.00 0.00 0.00 61 1017.3
20260504150524 76 0 0.0 0.0 0.00 0.00 0.00 62 1017.2
20260504141023 76 0 0.0 0.0 0.00 0.00 0.00 63 1017.0
20260504140521 75 0 0.0 0.0 0.00 0.00 0.00 65 1016.9
20260504130523 73 76 4.0 10.0 0.00 0.00 0.00 74 1016.7
20260504110520 63 0 0.0 2.0 0.00 0.00 0.00 90 1015.7
20260504100519 64 0 0.0 1.0 0.00 0.00 0.00 89 1015.5